Le nostre stazioni meteo in Italia

Pubblicità
Il mio iltempo24.it
Pisa/S. Giusto, Italia (16158): Temperatura & dewpoint: 09.09.2019 21:00:00 - 15.09.2019 21:00:00 (CEST)Pisa/S. Giusto, Italia (16158): velocità del vento: 09.09.2019 21:00:00 - 15.09.2019 21:00:00 (CEST)Pisa/S. Giusto, Italia (16158): direzione del vento: 09.09.2019 21:00:00 - 15.09.2019 21:00:00 (CEST)Pisa/S. Giusto, Italia (16158): reduced air pressure: 09.09.2019 21:00:00 - 15.09.2019 21:00:00 (CEST)Pisa/S. Giusto, Italia (16158): visibility: 09.09.2019 21:00:00 - 15.09.2019 21:00:00 (CEST)Pisa/S. Giusto, Italia (16158): ore di luce: 09.09.2019 21:00:00 - 15.09.2019 21:00:00 (CEST)
Data & Tempo tt [°C] td [°C] ff [km/h] ff [kn] dd ppp [hPa] vv [km] sd [min]
15.09.2019 21:00:00 22,0 20,0 5 3 OSO - 10 -
15.09.2019 20:00:00 23,4 20,3 5 3 OSO 1021,9 10 -
15.09.2019 19:00:00 24,0 20,0 8 4 ONO - 10 -
15.09.2019 18:00:00 25,0 19,0 13 7 ONO - 10 -
15.09.2019 17:00:00 26,6 15,3 13 7 ONO 1022,4 10 0
15.09.2019 16:00:00 27,0 16,0 13 7 NO - 10 -
15.09.2019 15:00:00 27,0 15,0 15 8 NNO - 10 -
15.09.2019 14:00:00 28,0 13,2 4 2 - 1024,3 10 -
15.09.2019 13:00:00 27,0 13,0 11 6 SE - 10 -
15.09.2019 12:00:00 27,0 14,0 16 9 ESE - 10 -
15.09.2019 11:00:00 25,6 13,8 13 7 ESE 1025,1 10 30
15.09.2019 10:00:00 24,0 13,0 13 7 ESE - 10 -
15.09.2019 09:00:00 21,0 14,0 11 6 ESE - 10 -
15.09.2019 08:00:00 15,6 14,6 4 2 SE 1024,8 10 -
15.09.2019 07:00:00 15,0 14,0 8 4 E - 10 -
15.09.2019 06:00:00 15,0 14,0 9 5 SE - 10 -
15.09.2019 05:00:00 16,8 13,7 5 3 SSE 1024,8 10 -
15.09.2019 04:00:00 19,0 15,0 4 2 ENE - 10 -
15.09.2019 03:00:00 19,0 15,0 5 3 NE - 10 -
15.09.2019 02:00:00 20,6 14,5 4 2 SSE 1024,9 10 -
15.09.2019 01:00:00 20,0 15,0 11 6 SSE - 10 -
15.09.2019 00:00:00 21,0 15,0 15 8 SE - 10 -
14.09.2019 23:00:00 21,4 15,5 9 5 SE 1024,7 10 -
14.09.2019 22:00:00 20,0 18,0 13 7 SSE - 10 -
14.09.2019 21:00:00 22,0 19,0 4 2 SO - 10 -
14.09.2019 20:00:00 26,0 16,5 5 3 O 1024,0 10 0
14.09.2019 19:00:00 27,0 16,0 11 6 ONO - 10 -
14.09.2019 18:00:00 30,0 13,0 11 6 NNE - 10 -
14.09.2019 17:00:00 29,0 17,5 13 7 ENE 1024,2 10 60
14.09.2019 16:00:00 29,0 17,0 15 8 NO - 10 -
14.09.2019 15:00:00 29,0 15,0 18 10 NO - 10 -
14.09.2019 14:00:00 29,0 14,8 16 9 NO 1025,9 10 60
14.09.2019 13:00:00 29,0 14,0 9 5 NNO - 10 -
14.09.2019 12:00:00 27,0 14,0 8 4 ONO - 10 -
14.09.2019 11:00:00 24,8 13,7 4 2 - 1027,1 10 60
14.09.2019 10:00:00 24,0 15,0 5 3 ESE - 10 -
14.09.2019 09:00:00 21,0 15,0 8 4 ESE - 10 -
14.09.2019 08:00:00 16,2 15,1 8 4 E 1026,6 10 -
14.09.2019 07:00:00 16,0 14,0 13 7 ESE - 10 -
14.09.2019 06:00:00 16,0 14,0 9 5 ENE - 10 -
14.09.2019 05:00:00 15,4 14,6 13 7 E 1025,8 10 -
14.09.2019 04:00:00 17,0 15,0 4 2 - - 10 -
14.09.2019 03:00:00 18,0 15,0 4 2 - - 10 -
14.09.2019 02:00:00 18,4 15,8 4 2 - 1026,5 10 -
14.09.2019 01:00:00 18,0 15,0 4 2 - - 10 -
14.09.2019 00:00:00 19,0 15,0 8 4 E - 10 -
13.09.2019 23:00:00 19,4 15,5 8 4 E 1026,6 10 -
13.09.2019 22:00:00 21,0 15,0 9 5 ESE - 10 -
13.09.2019 21:00:00 21,0 15,0 8 4 S - 10 -
13.09.2019 20:00:00 25,0 14,2 13 7 NNO 1026,3 10 30
13.09.2019 19:00:00 26,0 14,0 16 9 NO - 10 -
13.09.2019 18:00:00 28,0 15,0 16 9 NNO - 10 -
13.09.2019 17:00:00 28,6 15,5 18 10 NO 1026,8 10 60
13.09.2019 16:00:00 29,0 14,0 21 11 NO - 10 -
13.09.2019 15:00:00 30,0 11,0 11 6 NNE - 10 -
13.09.2019 14:00:00 30,6 11,1 21 11 E 1027,9 10 60
13.09.2019 13:00:00 30,0 11,0 11 6 NE - 10 -
13.09.2019 12:00:00 29,0 12,0 11 6 ENE - 10 -
13.09.2019 11:00:00 25,8 12,3 13 7 ESE 1029,1 10 60
13.09.2019 10:00:00 24,0 12,0 9 5 SE - 10 -
13.09.2019 09:00:00 20,0 13,0 9 5 ESE - 10 -
13.09.2019 08:00:00 15,4 12,4 8 4 ESE 1028,5 10 0
13.09.2019 07:00:00 15,0 12,0 5 3 SE - 10 -
13.09.2019 06:00:00 15,0 12,0 5 3 - - 10 -
13.09.2019 05:00:00 17,0 11,9 4 2 - 1028,1 10 -
13.09.2019 04:00:00 15,0 12,0 9 5 SSO - 10 -
13.09.2019 03:00:00 17,0 13,0 5 3 SSO - 10 -
13.09.2019 02:00:00 17,0 12,5 4 2 E 1028,1 10 -
13.09.2019 01:00:00 18,0 16,0 4 2 - - 10 -
13.09.2019 00:00:00 18,0 17,0 5 3 SO - 10 -
12.09.2019 23:00:00 19,2 18,0 4 2 ESE 1028,1 10 -
12.09.2019 22:00:00 20,0 18,0 2 1 - - 10 -
12.09.2019 21:00:00 23,0 19,0 8 4 ONO - 10 -
12.09.2019 20:00:00 23,6 17,8 8 4 ONO 1026,6 10 30
12.09.2019 19:00:00 25,0 17,0 5 3 NNO - 10 -
12.09.2019 18:00:00 26,0 16,0 16 9 NO - 10 -
12.09.2019 17:00:00 28,0 12,4 18 10 NO 1026,4 10 60
12.09.2019 16:00:00 28,0 11,0 18 10 NO - 10 -
12.09.2019 15:00:00 28,0 12,0 22 12 NNO - 10 -
12.09.2019 14:00:00 28,2 14,1 21 11 NNO 1027,0 10 60
12.09.2019 13:00:00 28,0 13,0 13 7 NNO - 10 -
12.09.2019 12:00:00 27,0 12,0 8 4 ONO - 10 -
12.09.2019 11:00:00 23,6 13,5 5 3 - 1027,2 10 60
12.09.2019 10:00:00 23,0 14,0 8 4 E - 10 -
12.09.2019 09:00:00 20,0 15,0 9 5 E - 10 -
12.09.2019 08:00:00 14,4 13,8 5 3 E 1025,2 10 -
12.09.2019 07:00:00 14,0 13,0 5 3 ESE - 10 -
12.09.2019 06:00:00 14,0 13,0 8 4 ESE - 10 -
12.09.2019 05:00:00 14,8 14,0 8 4 ESE 1023,6 10 -
12.09.2019 04:00:00 15,0 14,0 5 3 ESE - 10 -
12.09.2019 03:00:00 15,0 14,0 8 4 ESE - 10 -
12.09.2019 02:00:00 15,8 15,0 5 3 ESE 1023,0 10 -
12.09.2019 01:00:00 16,0 15,0 5 3 SE - 10 -
12.09.2019 00:00:00 16,0 15,0 5 3 ESE - 10 -
11.09.2019 23:00:00 17,4 16,1 5 3 SE 1022,0 10 -
11.09.2019 22:00:00 18,0 17,0 5 3 O - 10 -
11.09.2019 21:00:00 19,0 17,0 8 4 SO - 10 -
11.09.2019 20:00:00 23,0 17,2 4 2 ONO 1020,2 10 42
11.09.2019 19:00:00 24,0 17,0 11 6 NO - 10 -
11.09.2019 18:00:00 26,0 16,0 18 10 NO - 10 -
11.09.2019 17:00:00 27,0 12,6 18 10 ONO 1019,8 10 60
11.09.2019 16:00:00 27,0 14,0 21 11 ONO - 10 -
11.09.2019 15:00:00 28,0 13,0 21 11 NO - 10 -
11.09.2019 14:00:00 28,0 10,2 9 5 E 1019,0 10 60
11.09.2019 13:00:00 28,0 10,0 11 6 E - 10 -
11.09.2019 12:00:00 27,0 11,0 15 8 E - 10 -
11.09.2019 11:00:00 25,0 11,9 22 12 ESE 1019,6 10 60
11.09.2019 10:00:00 24,0 12,0 16 9 ESE - 10 -
11.09.2019 09:00:00 21,0 14,0 8 4 ESE - 10 -
11.09.2019 08:00:00 15,0 13,7 2 1 - 1018,0 10 -
11.09.2019 07:00:00 15,0 14,0 5 3 - - 10 -
11.09.2019 06:00:00 16,0 14,0 5 3 E - 10 -
11.09.2019 05:00:00 16,2 14,5 11 6 ESE 1017,2 10 -
11.09.2019 04:00:00 16,0 15,0 11 6 SE - 10 -
11.09.2019 03:00:00 16,0 15,0 5 3 ESE - 10 -
11.09.2019 02:00:00 16,4 14,8 4 2 SO 1016,6 10 -
11.09.2019 01:00:00 17,0 15,0 4 2 SO - 10 -
11.09.2019 00:00:00 17,0 15,0 4 2 - - 10 -
10.09.2019 23:00:00 18,0 15,4 4 2 ESE 1015,9 10 -
10.09.2019 22:00:00 18,0 16,0 4 2 E - 10 -
10.09.2019 21:00:00 19,0 17,0 8 4 ESE - 10 -
10.09.2019 20:00:00 21,0 16,2 9 5 SSO 1013,8 10 18
10.09.2019 19:00:00 22,0 14,0 8 4 SSO - 10 -
10.09.2019 18:00:00 24,0 13,0 15 8 ONO - 10 -
10.09.2019 17:00:00 25,2 12,8 15 8 O 1013,7 10 60
10.09.2019 16:00:00 25,0 13,0 22 12 OSO - 10 -
10.09.2019 15:00:00 27,0 10,0 9 5 ESE - 10 -
10.09.2019 14:00:00 25,0 10,5 15 8 ESE 1014,9 10 60
10.09.2019 13:00:00 24,0 11,0 18 10 E - 10 -
10.09.2019 12:00:00 24,0 12,0 13 7 E - 10 -
10.09.2019 11:00:00 21,8 12,7 16 9 E 1015,2 10 60
10.09.2019 10:00:00 20,0 13,0 18 10 E - 10 -
10.09.2019 09:00:00 18,0 15,0 9 5 E - 10 -
10.09.2019 08:00:00 12,6 12,1 8 4 SE 1015,3 10 0
10.09.2019 07:00:00 12,0 11,0 8 4 SE - 10 -
10.09.2019 06:00:00 13,0 13,0 4 2 E - 10 -
10.09.2019 05:00:00 13,6 13,1 9 5 E 1015,6 10 -
10.09.2019 04:00:00 14,0 13,0 11 6 ESE - 10 -
10.09.2019 03:00:00 14,0 13,0 8 4 ESE - 10 -
10.09.2019 02:00:00 15,2 14,1 9 5 ESE 1015,8 10 -
10.09.2019 01:00:00 16,0 15,0 5 3 ESE - 10 -
10.09.2019 00:00:00 16,0 14,0 8 4 ESE - 10 -
09.09.2019 23:00:00 16,8 14,3 8 4 SE 1015,6 10 -
09.09.2019 22:00:00 17,0 14,0 4 2 SO - 10 -
09.09.2019 21:00:00 19,0 14,0 8 4 OSO - 10 -

tt = Temperatura
td = dewpoint
ff = velocità del vento
dd = direzione del vento
ppp = reduced air pressure
vv = visibility
sd = ore di luce

Stazioni seguenti

WeatherPro
AMSI
MeteoEarth